{"data":{"norad_id":68959,"epoch":"2026-05-25T04:00:03.998880Z","epoch_age_seconds":64575,"freshness":"FRESH","line1":"1 68959U 26099J   26145.16671295  .00080228  00000+0  14375-2 0  9999","line2":"2 68959  53.1588 270.7763 0001343  53.8378 252.0870 15.49275138  5011","mean_motion":15.49275138,"eccentricity":0.0001343,"inclination_deg":53.1588,"raan_deg":270.7763,"arg_perigee_deg":53.8378,"mean_anomaly_deg":252.087,"bstar":0.0014375,"rev_number":501,"period_min":92.94669259709,"perigee_km":417.9324853686,"apogee_km":419.75815481978,"semimajor_km":6796.9823200942,"source":"CELESTRAK","updated_at":"2026-05-25T13:38:22.073434Z"}}